• In Austria
  • List of Countries
  • For 7 days
  • Water Temperature
  • Satellite Maps
  • Weather Map
  • News
  • Weather Widgets
  • user-avatar
    Login

    Hourly Weather Dortmund

    Today, 15 August, Wednesday

    Time Temperature Precipitation Wind Pressure Humidity
    00:00 +18°C° 0 mm 2 mps 755 mmHg 80%
    01:00 +17°C° 0 mm 2 mps 755 mmHg 81%
    02:00 +17°C° 0 mm 2 mps 755 mmHg 82%
    03:00 +16°C° 0 mm 2 mps 755 mmHg 83%
    04:00 +17°C° 0 mm 2 mps 755 mmHg 82%
    05:00 +17°C° 0 mm 2 mps 755 mmHg 81%
    06:00 +18°C° 0 mm 2 mps 755 mmHg 79%
    07:00 +19°C° 0 mm 3 mps 755 mmHg 73%
    08:00 +21°C° 0 mm 3 mps 756 mmHg 68%
    09:00 +22°C° 0 mm 3 mps 756 mmHg 62%
    10:00 +24°C° 0 mm 3 mps 756 mmHg 59%
    11:00 +25°C° 0 mm 2 mps 756 mmHg 56%
    12:00 +26°C° 0 mm 2 mps 756 mmHg 53%
    13:00 +26°C° 0 mm 2 mps 755 mmHg 53%
    14:00 +26°C° 0 mm 2 mps 755 mmHg 54%
    15:00 +26°C° 0 mm 2 mps 755 mmHg 54%
    16:00 +26°C° 0 mm 2 mps 755 mmHg 57%
    17:00 +25°C° 0 mm 2 mps 755 mmHg 60%
    18:00 +25°C° 0 mm 2 mps 755 mmHg 63%
    19:00 +24°C° 0 mm 2 mps 755 mmHg 67%
    20:00 +21°C° 0 mm 2 mps 755 mmHg 71%
    21:00 +20°C° 0 mm 2 mps 756 mmHg 75%
    22:00 +20°C° 0 mm 2 mps 755 mmHg 77%
    23:00 +19°C° 0 mm 2 mps 755 mmHg 80%

    Tomorrow, 16 August, Thursday

    Time Temperature Precipitation Wind Pressure Humidity
    00:00 +19°C° 0 mm 2 mps 755 mmHg 82%
    01:00 +19°C° 0 mm 2 mps 755 mmHg 83%
    02:00 +18°C° 0 mm 2 mps 755 mmHg 84%
    03:00 +18°C° 0 mm 2 mps 755 mmHg 86%
    04:00 +18°C° 0 mm 2 mps 754 mmHg 83%
    05:00 +19°C° 0 mm 2 mps 754 mmHg 81%
    06:00 +19°C° 0 mm 2 mps 754 mmHg 79%
    07:00 +21°C° 0 mm 2 mps 754 mmHg 71%
    08:00 +24°C° 0 mm 3 mps 754 mmHg 63%
    09:00 +26°C° 0 mm 3 mps 754 mmHg 56%
    10:00 +27°C° 0 mm 3 mps 753 mmHg 50%
    11:00 +28°C° 0 mm 3 mps 753 mmHg 45%
    12:00 +30°C° 0 mm 3 mps 753 mmHg 40%
    13:00 +30°C° 0 mm 3 mps 752 mmHg 38%
    14:00 +30°C° 0 mm 2 mps 752 mmHg 37%
    15:00 +31°C° 0 mm 2 mps 751 mmHg 35%
    16:00 +30°C° 0 mm 2 mps 751 mmHg 39%
    17:00 +29°C° 0 mm 1 mps 751 mmHg 43%
    18:00 +28°C° 0 mm 1 mps 751 mmHg 47%
    19:00 +26°C° 0 mm 1 mps 751 mmHg 52%
    20:00 +25°C° 0 mm 2 mps 751 mmHg 57%
    21:00 +23°C° 0 mm 2 mps 752 mmHg 62%
    22:00 +21°C° 0.3 mm 2 mps 752 mmHg 68%
    23:00 +20°C° 0.3 mm 2 mps 752 mmHg 74%

    Day after tomorrow, 17 August, Friday

    Time Temperature Precipitation Wind Pressure Humidity
    00:00 +19°C° 0.3 mm 2 mps 752 mmHg 80%
    01:00 +19°C° 0.5 mm 2 mps 752 mmHg 84%
    02:00 +18°C° 0.5 mm 2 mps 752 mmHg 88%
    03:00 +18°C° 0.5 mm 2 mps 752 mmHg 92%
    04:00 +18°C° 1 mm 2 mps 752 mmHg 91%
    05:00 +18°C° 1 mm 2 mps 753 mmHg 91%
    06:00 +18°C° 1 mm 2 mps 753 mmHg 91%
    07:00 +19°C° 0.3 mm 2 mps 753 mmHg 88%
    08:00 +19°C° 0.3 mm 2 mps 754 mmHg 84%
    09:00 +19°C° 0.3 mm 3 mps 754 mmHg 81%
    10:00 +20°C° 0 mm 2 mps 754 mmHg 74%
    11:00 +21°C° 0 mm 2 mps 755 mmHg 68%
    12:00 +21°C° 0 mm 2 mps 755 mmHg 61%
    13:00 +22°C° 0 mm 3 mps 755 mmHg 56%
    14:00 +24°C° 0 mm 3 mps 755 mmHg 51%
    15:00 +25°C° 0 mm 3 mps 755 mmHg 46%
    16:00 +24°C° 0 mm 3 mps 756 mmHg 48%
    17:00 +23°C° 0 mm 2 mps 756 mmHg 51%
    18:00 +21°C° 0 mm 2 mps 756 mmHg 54%
    19:00 +20°C° 0 mm 2 mps 756 mmHg 57%
    20:00 +20°C° 0 mm 1 mps 757 mmHg 60%
    21:00 +19°C° 0 mm 1 mps 757 mmHg 63%
    22:00 +18°C° 0 mm 1 mps 757 mmHg 65%
    23:00 +18°C° 0 mm 1 mps 757 mmHg 67%

    18 August, Saturday

    Time Temperature Precipitation Wind Pressure Humidity
    00:00 +16°C° 0 mm 1 mps 758 mmHg 69%
    01:00 +16°C° 0 mm 1 mps 758 mmHg 70%
    02:00 +15°C° 0 mm 1 mps 758 mmHg 71%
    03:00 +15°C° 0 mm 1 mps 758 mmHg 72%
    04:00 +16°C° 0 mm 2 mps 758 mmHg 71%
    05:00 +16°C° 0 mm 2 mps 758 mmHg 69%
    06:00 +17°C° 0 mm 2 mps 758 mmHg 68%
    07:00 +18°C° 0 mm 3 mps 758 mmHg 63%
    08:00 +20°C° 0 mm 3 mps 758 mmHg 57%
    09:00 +21°C° 0 mm 4 mps 758 mmHg 52%
    10:00 +22°C° 0 mm 4 mps 758 mmHg 50%
    11:00 +23°C° 0 mm 4 mps 758 mmHg 47%
    12:00 +25°C° 0 mm 4 mps 758 mmHg 45%
    13:00 +25°C° 0 mm 4 mps 758 mmHg 47%
    14:00 +25°C° 0 mm 4 mps 757 mmHg 49%
    15:00 +25°C° 0 mm 4 mps 757 mmHg 51%
    16:00 +23°C° 0 mm 4 mps 757 mmHg 56%
    17:00 +22°C° 0 mm 3 mps 758 mmHg 60%
    18:00 +21°C° 0 mm 3 mps 758 mmHg 65%
    19:00 +20°C° 0 mm 2 mps 758 mmHg 69%
    20:00 +19°C° 0 mm 2 mps 758 mmHg 74%
    21:00 +18°C° 0 mm 2 mps 759 mmHg 78%
    22:00 +18°C° 0 mm 2 mps 759 mmHg 79%
    23:00 +17°C° 0 mm 2 mps 759 mmHg 81%

    19 August, Sunday

    Time Temperature Precipitation Wind Pressure Humidity
    00:00 +17°C° 0 mm 2 mps 759 mmHg 83%
    01:00 +17°C° 0 mm 2 mps 759 mmHg 84%
    02:00 +17°C° 0 mm 2 mps 759 mmHg 86%
    03:00 +17°C° 0 mm 2 mps 759 mmHg 87%
    04:00 +17°C° 0 mm 2 mps 759 mmHg 86%
    05:00 +17°C° 0 mm 2 mps 759 mmHg 85%
    06:00 +18°C° 0 mm 2 mps 759 mmHg 84%
    07:00 +20°C° 0 mm 2 mps 759 mmHg 78%
    08:00 +21°C° 0 mm 2 mps 759 mmHg 72%
    09:00 +24°C° 0 mm 2 mps 759 mmHg 66%
    10:00 +25°C° 0 mm 2 mps 759 mmHg 63%
    11:00 +26°C° 0 mm 2 mps 759 mmHg 61%
    12:00 +26°C° 0 mm 2 mps 759 mmHg 58%
    13:00 +27°C° 0.1 mm 2 mps 759 mmHg 57%
    14:00 +27°C° 0.1 mm 2 mps 758 mmHg 56%
    15:00 +27°C° 0.1 mm 2 mps 758 mmHg 56%
    16:00 +26°C° 0 mm 2 mps 758 mmHg 60%
    17:00 +26°C° 0 mm 2 mps 758 mmHg 63%
    18:00 +25°C° 0 mm 1 mps 758 mmHg 67%
    19:00 +24°C° 0 mm 1 mps 758 mmHg 71%
    20:00 +23°C° 0 mm 1 mps 758 mmHg 75%
    21:00 +22°C° 0 mm 1 mps 759 mmHg 79%
    22:00 +22°C° 0 mm 1 mps 759 mmHg 80%
    23:00 +19°C° 0 mm 0 mps 759 mmHg 82%

    20 August, Monday

    Time Temperature Precipitation Wind Pressure Humidity
    00:00 +19°C° 0 mm 0 mps 758 mmHg 84%
    01:00 +21°C° 0 mm 1 mps 758 mmHg 85%
    02:00 +20°C° 0 mm 1 mps 758 mmHg 86%
    03:00 +20°C° 0 mm 1 mps 758 mmHg 87%
    04:00 +20°C° 0 mm 1 mps 758 mmHg 86%
    05:00 +21°C° 0 mm 1 mps 758 mmHg 84%
    06:00 +20°C° 0 mm 2 mps 758 mmHg 83%
    07:00 +23°C° 0 mm 2 mps 758 mmHg 76%
    08:00 +24°C° 0 mm 2 mps 758 mmHg 68%
    09:00 +26°C° 0 mm 2 mps 758 mmHg 61%
    10:00 +27°C° 0 mm 2 mps 758 mmHg 57%
    11:00 +27°C° 0 mm 3 mps 758 mmHg 53%
    12:00 +28°C° 0 mm 3 mps 757 mmHg 48%
    13:00 +28°C° 0 mm 3 mps 757 mmHg 49%
    14:00 +28°C° 0 mm 3 mps 757 mmHg 50%
    15:00 +28°C° 0 mm 3 mps 757 mmHg 51%
    16:00 +27°C° 0 mm 2 mps 757 mmHg 56%
    17:00 +26°C° 0 mm 2 mps 757 mmHg 61%
    18:00 +25°C° 0 mm 2 mps 757 mmHg 66%
    19:00 +24°C° 0 mm 1 mps 757 mmHg 70%
    20:00 +23°C° 0 mm 1 mps 757 mmHg 75%
    21:00 +22°C° 0 mm 1 mps 758 mmHg 79%
    22:00 +20°C° 0 mm 0 mps 758 mmHg 81%
    23:00 +19°C° 0 mm 0 mps 758 mmHg 83%
    Show more